Location: Unspecified
(0.0000°N, 0.0000°E)
Time: 11:22:40
(UTC+00:00)

Vanguard 1 Rocket - Pass Details

Date: 20 November 2019
Orbit: 650 x 4226 km, 34.3° (Epoch: 07 December)

Event Time Altitude Azimuth Distance (km) Brightness Sun altitude
Rises 07:54:13 0° 341° (NNW) 3,836 10.3 30.1°
Reaches altitude 10° 07:57:28 10° 360° (N) 3,278 10.1 30.8°
Maximum altitude 08:03:19 19° 44° (NE) 3,328 10.7 32.2°
Drops below altitude 10° 08:11:56 10° 84° (E) 5,103 12.2 34.2°
Sets 08:19:01 0° 99° (E) 6,889 12.8 35.8°
